Home > Time Zones > World Clock > Weather > Iran > Rasht > Past weeks

Flag for Iran Weather past 2 weeks in Rasht, Iran

Now
66 °F

Partly sunny.


Feels Like: 66 °F
Forecast: 48 / 71 °F
Wind: 7 mph from North

Location: Rasht Airport


UV Index: 5 (Moderate)

Visibility: N/A


Pressure: 29.98 "Hg

Humidity: 64%

Dew point: 54 °F

Location of RashtLocation

Historic Weather in Rasht

°F

Rasht temperature yesterday

Maximum temperature yesterday: 72 °F (at 1:30 PM)
Minimum temperature yesterday: 55 °F (at 7:00 AM)
Average temperature yesterday: 66 °F

Past Weeks' High & Low Weather Summary

 TemperatureHumidityPressure
High77 °F (Apr 20, 2:30 PM)100% (Apr 10, 6:30 AM)30.27 "Hg (Apr 10, 6:30 AM)
Low45 °F (Apr 10, 6:30 AM)50% (Apr 20, 4:30 PM)29.74 "Hg (Apr 9, 11:30 AM)
Average62 °F77%29.99 "Hg
* Reported Apr 9 10:30 AM — Apr 24 10:30 AM, Rasht, Weather by CustomWeather, © 2014

Note: Actual official high and low records may vary slightly from our data, if they occured in-between our weather recording intervals... More about our weather records

Advertising

Historic Weather Conditions — Data for Previous 24 hours

 ConditionsComfort  
Time TempWeatherWind HumidityBarometerVisibility
10:30 AM
Apr 24
66 °FPartly sunny.7 mph64%29.98 "HgN/A
10:00 AM64 °FBroken clouds.5 mph73%29.98 "HgN/A
9:30 AM64 °FBroken clouds.5 mph73%29.98 "HgN/A
9:00 AM63 °FPartly sunny.7 mph88%29.95 "HgN/A
8:30 AM63 °FPartly sunny.No wind88%29.95 "HgN/A
8:00 AM61 °FPartly sunny.5 mph88%29.95 "HgN/A
7:30 AM57 °FPartly cloudy.5 mph100%29.92 "Hg5 mi
7:00 AM57 °FFog.5 mph100%29.92 "Hg3 mi
6:30 AM57 °FFog.5 mph100%29.92 "Hg3 mi
8:00 PM
Apr 23
64 °FBroken clouds.No wind73%29.86 "Hg5 mi
7:30 PM64 °FBroken clouds.No wind73%29.86 "Hg5 mi
7:00 PM64 °FSprinkles. Broken clouds.9 mph73%29.83 "Hg5 mi
6:30 PM64 °FThunderstorms. Broken clouds.5 mph68%29.86 "Hg5 mi
6:00 PM66 °FBroken clouds.7 mph68%29.83 "HgN/A
5:30 PM66 °FBroken clouds.9 mph68%29.83 "HgN/A
5:00 PM66 °FBroken clouds.12 mph68%29.83 "HgN/A
4:30 PM68 °FBroken clouds.12 mph64%29.83 "HgN/A
4:00 PM70 °FScattered clouds.12 mph57%29.83 "HgN/A
3:30 PM70 °FScattered clouds.9 mph57%29.83 "HgN/A
3:00 PM70 °FPartly sunny.12 mph60%29.86 "HgN/A
2:30 PM70 °FPartly sunny.9 mph60%29.86 "HgN/A
2:00 PM72 °FScattered clouds.9 mph53%29.89 "Hg5 mi
1:30 PM72 °FScattered clouds.12 mph53%29.89 "Hg5 mi
1:00 PM70 °FScattered clouds.9 mph60%29.95 "Hg5 mi
12:30 PM70 °FScattered clouds.12 mph60%29.95 "Hg5 mi
12:00 PM70 °FScattered clouds.12 mph60%29.95 "Hg5 mi
11:30 AM70 °FScattered clouds.12 mph60%29.95 "Hg5 mi
Weather by CustomWeather, © 2014

See weather overview